Location: Piotrkow Trybunalski
(51.4000°N, 19.6830°E)
Time: 03:56:54
(UTC+02:00)

A-11 Canister half - Pass Details

Date: 29 January 2023
Orbit: 1526 x 1682 km, 47.3° (Epoch: 24 March)

Event Time Altitude Azimuth Distance (km) Brightness Sun altitude
Rises 11:49:08 0° 281° (WNW) 4,718 11.4 20.7°
Reaches altitude 10° 11:52:15 10° 277° (W) 3,750 11.0 20.7°
Maximum altitude 12:01:21 53° 205° (SSW) 1,894 10.6 20.6°
Drops below altitude 10° 12:10:45 10° 132° (SE) 3,860 11.7 20.6°
Sets 12:14:00 0° 128° (SE) 4,865 12.1 20.5°
